CW2927 Weather Reports


Display with metric or nautical units.
time (UTC)temp
F
wind
direction
speed
MPH
gust
MPH
rain 1hr
in
rain 24hr
in
rain mn
in
humidity
%
barometer
mb
20190124024707 30 171 3.0 6.0 0.00 0.00 0.00 95 1005.2
20190124024207 30 155 1.0 5.0 0.00 0.00 0.00 95 1005.3
20190124022712 29 159 1.0 5.0 0.00 0.00 0.00 95 1005.6
20190124022206 29 153 1.0 8.0 0.00 0.00 0.00 95 1005.6
20190124020706 28 150 2.0 8.0 0.00 0.00 0.00 95 1006.1
20190124020212 28 155 1.0 8.0 0.00 0.00 0.00 95 1006.2
20190124014707 28 151 2.0 7.0 0.00 0.00 0.00 95 1006.5
20190124014206 27 141 3.0 8.0 0.00 0.00 0.00 95 1006.7
20190124012707 27 132 1.0 6.0 0.00 0.00 0.00 94 1007.6
20190124012207 27 154 2.0 7.0 0.00 0.00 0.00 94 1007.7
20190124010707 27 148 1.0 5.0 0.00 0.00 0.00 94 1008.3
20190124010207 27 137 2.0 6.0 0.00 0.00 0.00 94 1008.5
20190124004709 27 130 1.0 3.0 0.00 0.00 0.00 94 1008.8
20190124004206 27 128 0.0 6.0 0.00 0.00 0.00 94 1008.9
20190124002707 27 134 2.0 3.0 0.00 0.00 0.00 94 1009.3
20190124002207 27 136 1.0 3.0 0.00 0.00 0.00 94 1009.6
20190124000709 27 136 0.0 0.0 0.00 0.00 0.00 94 1009.9
20190124000206 27 136 0.0 0.0 0.00 0.00 0.00 94 1010.1
20190123234706 26 139 0.0 0.0 0.00 0.00 0.00 94 1010.5
20190123234206 26 139 0.0 0.0 0.00 0.00 0.00 94 1010.8
20190123232707 26 140 0.0 0.0 0.00 0.00 0.00 94 1011.1
20190123232207 26 140 0.0 3.0 0.00 0.00 0.00 94 1011.2
20190123230706 26 140 1.0 3.0 0.00 0.00 0.00 94 1011.3
20190123230207 26 140 0.0 3.0 0.00 0.00 0.00 94 1011.5
20190123224706 26 144 0.0 0.0 0.00 0.00 0.00 93 1011.5
20190123224207 26 144 0.0 3.0 0.00 0.00 0.00 93 1011.6
20190123222706 26 144 1.0 5.0 0.00 0.00 0.00 93 1011.7
20190123222206 26 140 0.0 6.0 0.00 0.00 0.00 93 1011.7
20190123220706 26 144 0.0 3.0 0.00 0.00 0.00 93 1011.9
20190123220207 26 144 1.0 5.0 0.00 0.00 0.00 93 1012.0
20190123214706 26 145 1.0 3.0 0.00 0.00 0.00 93 1012.4
20190123214207 26 146 1.0 6.0 0.00 0.00 0.00 93 1012.6
20190123212706 26 146 2.0 3.0 0.00 0.00 0.00 92 1012.9
20190123212206 26 144 1.0 3.0 0.00 0.00 0.00 92 1013.1
20190123210707 27 143 0.0 2.0 0.00 0.00 0.00 92 1013.5
20190123210206 27 144 2.0 7.0 0.00 0.00 0.00 92 1013.5
20190123204706 27 144 1.0 5.0 0.00 0.00 0.00 92 1013.8
20190123204207 27 157 1.0 5.0 0.00 0.00 0.00 92 1013.8
20190123202706 27 165 2.0 5.0 0.00 0.00 0.00 91 1014.1
20190123202206 27 171 1.0 7.0 0.00 0.00 0.00 91 1014.2
20190123200706 27 162 2.0 5.0 0.00 0.00 0.00 91 1014.6
20190123200206 27 157 0.0 3.0 0.00 0.00 0.00 90 1014.8
20190123194707 27 162 1.0 5.0 0.00 0.00 0.00 90 1015.0
20190123194207 27 169 1.0 5.0 0.00 0.00 0.00 90 1015.3
20190123192707 27 164 2.0 5.0 0.00 0.00 0.00 90 1015.5
20190123192205 27 144 1.0 6.0 0.00 0.00 0.00 90 1015.4
20190123190706 27 175 2.0 5.0 0.00 0.00 0.00 90 1015.5
20190123190206 27 167 0.0 5.0 0.00 0.00 0.00 90 1015.6
20190123184706 26 149 0.0 5.0 0.00 0.00 0.00 90 1015.7
20190123184206 26 152 1.0 6.0 0.00 0.00 0.00 90 1015.9
20190123182706 26 166 2.0 5.0 0.00 0.00 0.00 90 1016.3
20190123182206 26 159 2.0 6.0 0.00 0.00 0.00 90 1016.3
20190123180707 25 166 3.0 6.0 0.00 0.00 0.00 91 1016.6
20190123180206 25 192 3.0 7.0 0.00 0.00 0.00 91 1016.7
20190123174706 25 171 2.0 8.0 0.00 0.00 0.00 91 1017.2
20190123174207 25 167 3.0 7.0 0.00 0.00 0.00 91 1017.2
20190123172706 25 187 1.0 3.0 0.00 0.00 0.00 91 1017.6
20190123172206 24 190 0.0 3.0 0.00 0.00 0.00 91 1017.8
20190123170706 24 190 0.0 0.0 0.00 0.00 0.00 91 1017.9
20190123170206 24 190 2.0 3.0 0.00 0.00 0.00 91 1017.9
20190123164706 24 182 3.0 5.0 0.00 0.00 0.00 91 1018.0
20190123164206 24 198 2.0 5.0 0.00 0.00 0.00 91 1018.2
20190123162706 24 175 2.0 6.0 0.00 0.00 0.00 90 1018.3
20190123162206 25 173 2.0 5.0 0.00 0.00 0.00 90 1018.5
20190123160708 24 188 1.0 3.0 0.00 0.00 0.00 91 1018.5
20190123160207 24 184 1.0 3.0 0.00 0.00 0.00 91 1018.7
20190123154715 24 175 0.0 2.0 0.00 0.00 0.00 91 1019.1
20190123154206 24 175 1.0 3.0 0.00 0.00 0.00 91 1019.1
20190123152706 23 171 0.0 0.0 0.00 0.00 0.00 91 1019.2
20190123152206 23 171 0.0 3.0 0.00 0.00 0.00 91 1019.2
20190123150711 23 180 2.0 5.0 0.00 0.00 0.00 91 1018.9
20190123150205 23 184 2.0 8.0 0.00 0.00 0.00 91 1018.9
20190123144706 22 195 2.0 5.0 0.00 0.00 0.00 91 1018.7
20190123144206 22 153 1.0 6.0 0.00 0.00 0.00 91 1018.8
20190123142706 21 183 0.0 3.0 0.00 0.00 0.00 91 1019.2
20190123142206 21 184 0.0 7.0 0.00 0.00 0.00 91 1019.3
20190123140706 20 181 3.0 7.0 0.00 0.00 0.00 91 1019.6
20190123140206 20 161 2.0 6.0 0.00 0.00 0.00 91 1019.5
20190123134705 19 179 2.0 7.0 0.00 0.00 0.00 91 1020.0
20190123134206 19 173 1.0 5.0 0.00 0.00 0.00 91 1020.1
20190123132707 18 170 1.0 5.0 0.00 0.00 0.00 91 1020.4
20190123132206 18 169 0.0 3.0 0.00 0.00 0.00 91 1020.8
20190123130706 18 150 1.0 5.0 0.00 0.00 0.00 91 1021.1
20190123130206 18 183 1.0 5.0 0.00 0.00 0.00 91 1021.2
20190123124706 17 184 2.0 3.0 0.00 0.00 0.00 90 1021.4
20190123124206 17 184 0.0 3.0 0.00 0.00 0.00 90 1021.3
20190123122706 17 183 1.0 5.0 0.00 0.00 0.00 90 1021.5
20190123122207 17 188 1.0 5.0 0.00 0.00 0.00 90 1021.4
20190123120707 16 187 1.0 5.0 0.00 0.00 0.00 90 1021.6
20190123120206 16 171 0.0 5.0 0.00 0.00 0.00 90 1021.3
20190123114706 16 136 2.0 3.0 0.00 0.00 0.00 89 1021.3
20190123114206 15 134 1.0 3.0 0.00 0.00 0.00 89 1021.4
20190123112706 15 132 0.0 2.0 0.00 0.00 0.00 89 1021.6
20190123112206 14 132 0.0 0.0 0.00 0.00 0.00 89 1021.7
20190123110706 14 132 0.0 0.0 0.00 0.00 0.00 88 1021.7
20190123110208 13 132 0.0 0.0 0.00 0.00 0.00 87 1021.7
20190123104706 13 132 0.0 0.0 0.00 0.00 0.00 87 1021.8
20190123104209 13 132 0.0 0.0 0.00 0.00 0.00 86 1022.2
20190123102706 13 132 0.0 0.0 0.00 0.00 0.00 86 1022.2
20190123102206 13 132 0.0 0.0 0.00 0.00 0.00 85 1022.3
20190123100705 12 132 0.0 0.0 0.00 0.00 0.00 85 1022.8
20190123100205 12 132 0.0 0.0 0.00 0.00 0.00 84 1022.8
20190123094706 12 132 0.0 0.0 0.00 0.00 0.00 84 1022.9
20190123094211 12 132 0.0 0.0 0.00 0.00 0.00 84 1023.1
20190123092706 11 131 0.0 0.0 0.00 0.00 0.00 84 1023.3
20190123092206 11 130 0.0 0.0 0.00 0.00 0.00 84 1023.3
20190123090706 11 131 0.0 0.0 0.00 0.00 0.00 84 1023.4
20190123090205 10 131 0.0 0.0 0.00 0.00 0.00 84 1023.6
20190123084706 10 130 0.0 0.0 0.00 0.00 0.00 83 1023.9
20190123084207 10 130 0.0 0.0 0.00 0.00 0.00 83 1024.0
20190123082706 10 131 0.0 0.0 0.00 0.00 0.00 82 1024.3
20190123082206 10 131 0.0 0.0 0.00 0.00 0.00 82 1024.5
20190123080706 10 131 0.0 0.0 0.00 0.00 0.00 82 1024.8
20190123080205 10 131 0.0 3.0 0.00 0.00 0.00 82 1024.9
20190123074706 10 131 2.0 3.0 0.00 0.00 0.00 81 1025.4
20190123074205 9 130 1.0 3.0 0.00 0.00 0.00 81 1025.6
20190123072706 9 129 2.0 5.0 0.00 0.00 0.00 81 1026.4
20190123072206 9 128 3.0 5.0 0.00 0.00 0.00 81 1026.4
20190123070706 9 138 2.0 6.0 0.00 0.00 0.00 81 1026.8
20190123070207 9 125 3.0 7.0 0.00 0.00 0.00 81 1026.7
20190123064706 8 134 3.0 6.0 0.00 0.00 0.00 81 1026.9
20190123064206 8 130 2.0 7.0 0.00 0.00 0.00 81 1027.1
20190123062706 8 130 5.0 7.0 0.00 0.00 0.00 81 1027.2
20190123062206 7 138 2.0 5.0 0.00 0.00 0.00 81 1027.5
20190123060705 7 139 5.0 8.0 0.00 0.00 0.00 81 1027.7
20190123060205 7 119 5.0 12.0 0.00 0.00 0.00 81 1027.8
20190123054707 6 127 3.0 7.0 0.00 0.00 0.00 82 1028.3
20190123054206 6 126 3.0 9.0 0.00 0.00 0.00 82 1028.6
20190123052706 6 138 3.0 8.0 0.00 0.00 0.00 82 1029.0
20190123052207 6 134 2.0 7.0 0.00 0.00 0.00 82 1029.4
20190123050706 5 122 4.0 7.0 0.00 0.00 0.00 82 1029.9
20190123050206 5 119 3.0 9.0 0.00 0.00 0.00 82 1030.1
20190123044708 5 128 3.0 7.0 0.00 0.00 0.00 82 1030.6
20190123044206 4 130 3.0 8.0 0.00 0.00 0.00 82 1030.8
20190123042707 4 130 5.0 9.0 0.00 0.00 0.00 83 1031.2
20190123042207 4 137 3.0 9.0 0.00 0.00 0.00 83 1031.5
20190123040706 4 126 2.0 5.0 0.00 0.00 0.00 83 1032.0
20190123040206 4 127 1.0 5.0 0.00 0.00 0.00 83 1032.3
20190123034706 3 122 2.0 3.0 0.00 0.00 0.00 83 1032.3
20190123034206 3 151 2.0 3.0 0.00 0.00 0.00 83 1032.4
20190123032706 3 172 0.0 0.0 0.00 0.00 0.00 83 1032.5
20190123032207 3 172 0.0 2.0 0.00 0.00 0.00 83 1032.4
20190123030705 2 172 1.0 3.0 0.00 0.00 0.00 83 1032.4
20190123030206 2 173 2.0 3.0 0.00 0.00 0.00 84 1032.4